RH
11 11 11 11 12 13 14 15 16 17 18 18 19 21 22 24 26 28 31 34 36 38 40 44 51 61 70 77 82 88 94 96 96 93 90 90 95 99 95 94 99 93
10 11 11 11 11 12 12 13 14 15 16 17 18 19 20 21 22 24 26 29 32 35 38 41 45 52 61 68 72 76 83 90 94 95 94 93 94 97 96 96 99 98
11 11 11 11 11 11 12 12 12 13 14 15 16 17 18 19 20 21 22 25 27 30 33 36 40 45 51 59 65 68 71 76 81 86 91 95 97 97 98 98 98 95
12 12 11 11 11 11 11 11 11 12 12 13 14 15 16 17 18 19 19 21 22 25 28 30 33 38 42 48 55 61 66 69 72 73 78 84 88 91 93 93 92 89
13 13 12 12 11 11 11 12 12 12 12 12 12 13 14 15 15 16 17 18 19 21 22 25 28 31 35 39 43 49 56 61 65 67 69 72 75 80 83 85 86 85
14 14 14 13 13 12 12 12 12 12 12 12 12 12 13 13 14 15 15 16 17 18 19 21 23 25 28 31 35 39 44 49 54 58 62 65 67 70 72 74 76 77
16 15 15 15 14 14 13 13 13 12 13 12 12 13 13 13 14 14 15 15 15 16 17 18 19 21 23 25 27 30 33 38 42 47 51 55 59 62 64 65 67 68
18 17 17 15 15 15 15 14 13 13 13 13 13 13 13 13 14 14 14 15 15 16 16 17 17 18 19 20 22 24 26 29 32 35 39 43 47 51 54 57 58 60
19 19 19 18 17 16 15 15 15 14 14 13 13 13 13 13 13 14 14 14 15 16 16 16 17 17 18 18 19 20 21 23 24 27 29 32 36 39 43 46 49 51
20 20 19 19 19 18 17 16 16 16 15 14 14 14 14 14 14 14 14 15 15 16 16 17 17 18 18 18 19 20 20 20 21 22 23 25 27 29 32 35 38 41
22 21 20 19 19 19 19 18 17 17 16 16 16 15 14 14 15 15 15 15 15 15 16 17 17 18 19 19 20 20 21 21 21 22 22 22 23 24 25 26 28 31
23 23 22 20 19 19 19 19 19 19 18 17 17 16 16 15 15 15 15 16 16 16 16 17 17 18 18 19 20 20 21 21 22 22 23 23 23 24 24 24 24 25
24 24 24 23 21 20 19 19 20 20 20 19 18 17 17 17 16 16 16 16 17 17 17 17 17 18 18 18 19 20 20 21 22 22 22 23 23 24 24 24 24 24
25 26 26 25 23 22 21 20 20 19 20 20 20 20 19 18 18 17 17 17 17 18 18 18 18 18 18 19 19 19 20 20 21 22 22 22 23 23 23 24 24 24
27 27 27 26 25 23 22 22 21 20 20 20 20 21 21 20 20 19 18 18 17 18 18 18 19 19 19 19 19 19 20 20 21 21 22 22 22 22 23 23 23 23
29 28 27 27 26 24 23 22 22 22 21 20 20 20 20 21 21 21 20 19 18 18 18 18 19 19 19 19 19 20 20 20 21 21 21 22 22 22 22 21 22 22
32 31 30 29 28 27 25 23 22 22 21 21 20 20 19 19 20 21 21 21 20 19 18 17 17 17 18 18 18 19 19 19 20 20 20 21 21 21 20 20 20 20
34 34 34 32 30 29 27 25 23 22 21 20 20 19 19 18 18 18 19 20 20 20 19 18 17 17 17 16 16 17 17 18 19 19 20 20 20 20 19 19 19 19
33 34 34 33 32 31 29 27 26 23 22 20 19 18 18 17 17 17 16 17 17 18 19 18 18 17 17 16 16 15 15 16 16 18 19 19 18 18 18 18 18 18
32 33 32 32 32 31 30 29 27 25 23 21 20 19 17 17 16 16 16 15 15 15 16 16 17 17 17 17 17 16 16 15 15 16 17 17 17 16 16 17 17 17
27 28 29 29 29 29 29 28 27 26 24 22 21 19 18 17 16 16 16 15 15 14 14 14 14 14 15 16 16 16 16 16 16 17 17 16 16 16 15 15 15 16
20 20 22 23 24 25 26 25 24 24 23 22 22 20 19 18 17 17 16 16 16 15 15 15 14 13 13 13 13 13 14 15 16 16 17 18 18 17 17 16 15 15
16 16 17 18 19 21 22 22 22 22 21 21 22 21 20 19 18 18 17 16 16 16 16 16 15 15 14 13 12 11 10 11 12 12 13 14 15 16 16 16 15 15
14 15 15 16 17 17 18 19 19 20 20 21 21 21 21 20 19 19 18 17 17 16 16 16 15 15 15 14 14 12 11 11 10 10 10 11 11 12 12 13 13 12
13 14 14 15 15 16 16 17 17 18 19 19 20 20 21 21 20 19 19 18 17 17 17 16 15 15 14 14 14 12 11 11 10 11 11 11 10 10 10 10 10 10
12 12 12 13 14 14 14 14 15 15 15 16 16 16 17 18 17 17 17 15 14 14 14 13 13 13 12 12 11 10 9 9 9 9 10 10 10 10 10 9 9 9
Wind_Speed
94 96 98 100 102 105 107 109 111 113 114 114 115 116 116 117 117 118 119 120 121 121 122 122 123 125 127 128 129 130 131 132 133 134 134 135 136 137 138 138 139 139
92 94 97 99 101 103 105 108 110 112 114 115 116 117 117 118 118 119 119 120 121 122 123 123 124 126 127 129 130 131 132 133 134 135 136 136 137 138 138 139 140 140
91 93 95 97 99 102 104 106 108 110 112 114 116 117 118 119 120 120 120 121 122 123 123 124 125 126 128 130 131 132 133 134 135 136 137 138 139 139 140 141 141 141
89 92 94 96 97 99 102 104 106 109 111 113 114 116 118 119 120 121 121 122 123 124 124 125 126 127 129 130 131 133 134 135 136 136 137 138 139 140 141 142 142 142
86 89 91 94 96 98 99 102 104 107 109 111 113 114 116 118 119 120 122 123 124 125 125 126 127 128 129 130 131 133 134 135 136 137 137 138 139 140 141 142 143 143
84 86 88 91 94 96 98 99 102 104 106 109 111 113 115 116 117 119 120 122 123 124 125 126 127 128 130 131 132 133 134 135 136 137 138 139 139 141 141 142 143 143
83 84 86 88 90 93 96 98 100 102 104 106 109 111 113 115 116 118 119 120 122 123 124 125 127 128 129 131 132 133 134 135 136 137 138 139 140 141 142 142 143 143
82 84 85 87 88 91 93 96 98 100 102 104 106 108 111 113 115 116 118 119 120 121 122 124 125 127 128 130 131 132 133 135 136 137 138 139 140 141 142 142 143 144
81 83 85 86 87 89 90 93 96 98 101 102 104 106 108 111 113 114 116 117 119 120 121 122 123 124 126 127 129 130 132 133 135 136 137 138 139 140 141 142 143 143
81 83 84 85 87 88 89 91 93 96 98 101 103 105 106 108 110 112 114 116 117 119 120 121 122 123 124 125 127 128 129 131 133 134 136 137 139 140 141 142 142 143
82 83 84 85 86 87 89 90 91 93 96 98 101 103 105 107 109 111 112 114 116 117 119 120 121 122 124 125 126 127 128 129 130 132 133 135 136 138 139 141 142 143
82 84 85 86 86 87 89 90 91 93 94 96 99 101 103 105 107 109 111 113 114 116 118 119 120 122 123 124 125 126 127 128 129 130 131 133 134 135 137 138 140 141
82 84 86 87 87 88 89 90 91 93 94 95 97 99 101 104 106 108 109 111 113 115 116 118 119 121 122 123 125 126 127 128 129 130 131 132 133 134 135 137 138 139
83 84 86 87 88 89 90 91 92 93 94 95 97 98 100 102 104 107 109 111 112 114 115 117 118 120 121 123 124 125 126 127 128 130 131 132 133 134 135 136 137 138
83 84 86 88 89 90 91 92 93 94 95 96 97 99 100 102 103 105 107 110 112 114 115 116 118 119 120 122 123 124 126 127 128 129 130 131 132 133 134 135 136 137
84 85 86 88 89 91 92 93 94 95 96 97 99 100 101 102 104 105 107 109 111 113 115 116 118 119 120 121 122 123 125 126 127 128 129 130 132 133 134 135 136 137
85 86 87 88 89 91 92 94 95 96 97 99 100 101 102 103 104 106 107 109 110 112 114 115 117 119 120 121 122 123 124 125 126 127 128 130 131 132 134 134 135 136
86 87 88 89 90 92 93 94 95 96 98 99 100 102 103 104 105 106 108 109 110 112 113 115 116 118 119 121 122 123 124 125 125 126 127 129 130 132 133 133 134 135
87 88 89 90 91 92 93 95 96 97 98 99 100 102 103 104 106 107 108 109 110 112 113 115 116 117 118 119 121 122 123 124 125 126 127 128 129 130 131 132 133 133
88 89 90 91 92 93 95 96 97 98 99 100 101 102 103 104 105 107 108 109 110 111 113 114 115 116 117 118 119 120 121 122 123 124 126 128 129 130 130 131 131 132
89 90 91 92 93 94 95 96 97 98 99 100 101 102 103 104 105 106 107 108 109 110 111 113 114 115 116 117 118 119 120 120 121 122 124 126 127 128 129 130 130 131
89 90 90 91 93 94 95 96 97 99 100 101 101 102 103 103 104 105 106 107 108 109 110 112 113 114 115 116 117 118 119 119 120 121 122 124 125 127 128 128 129 129
89 89 90 90 91 93 94 95 96 98 99 100 101 102 103 103 104 105 105 106 107 108 109 110 112 113 114 115 116 117 117 117 118 119 120 121 123 125 126 127 128 128
88 89 89 89 90 91 92 93 94 95 97 98 100 101 102 103 103 104 105 105 106 107 108 109 110 111 112 114 115 116 116 116 117 117 118 119 120 122 124 125 126 126
87 88 88 89 89 90 90 91 92 93 94 96 97 98 100 101 102 103 104 105 106 106 107 108 109 110 111 112 114 114 115 115 115 115 116 117 119 120 121 122 123 124
86 86 87 88 89 89 90 91 92 92 93 94 95 97 98 100 101 102 103 104 105 106 106 107 108 109 110 111 112 113 113 113 112 113 114 115 116 117 118 119 120 121
Wind_Direction
252 251 250 249 248 248 247 248 248 248 248 248 247 247 246 246 245 245 245 245 245 245 246 246 246 247 248 249 249 249 250 251 252 253 253 254 254 255 256 257 258 258
252 251 250 249 248 248 247 247 247 248 248 248 248 248 248 247 247 246 246 246 245 245 245 245 246 246 247 248 249 249 250 250 251 252 253 254 254 255 256 256 257 258
252 251 250 249 249 248 248 247 247 247 247 248 248 248 248 248 248 248 247 247 246 246 246 246 245 245 246 247 248 249 250 250 251 251 252 253 254 254 255 256 256 257
252 252 251 250 249 248 248 248 248 247 247 247 247 248 248 248 248 248 248 248 248 247 247 247 246 246 246 246 247 248 249 250 250 251 251 252 253 254 255 255 256 257
252 252 251 251 250 249 248 248 248 248 248 247 247 247 247 248 248 248 248 248 249 248 248 248 247 247 247 247 247 247 248 249 250 250 251 252 252 253 254 255 256 256
254 252 251 251 251 250 249 248 248 248 248 248 248 248 248 248 248 248 248 248 248 249 249 249 249 248 248 248 248 248 248 248 249 250 251 251 252 253 253 254 255 256
255 254 252 251 250 250 250 249 248 248 248 248 248 248 248 248 248 248 248 248 248 248 248 249 249 249 249 249 249 249 249 249 249 249 250 251 251 252 253 254 254 255
256 255 254 252 251 250 250 250 249 249 248 248 248 248 248 248 248 248 248 249 249 249 249 249 249 249 249 249 250 250 250 250 250 250 250 251 251 252 253 253 254 255
256 256 255 254 252 251 250 250 250 250 249 249 248 248 248 248 248 248 249 249 249 249 249 249 249 249 250 250 250 250 250 251 251 251 251 251 252 252 252 253 254 254
257 256 255 254 254 253 252 250 250 250 250 249 249 249 249 249 249 249 249 249 249 249 249 250 250 250 250 250 250 251 251 251 251 252 252 252 252 252 253 253 253 254
258 257 256 255 254 254 253 252 251 250 249 250 250 249 249 249 249 249 249 249 249 249 249 249 250 250 250 250 251 251 251 251 251 252 252 253 253 253 254 254 254 254
258 257 257 256 255 254 253 253 252 251 250 250 249 249 249 249 249 249 249 249 249 249 249 249 249 250 250 250 251 251 251 251 251 252 252 252 253 253 254 254 255 255
258 257 257 257 256 255 254 253 253 252 252 251 250 250 249 249 249 249 249 250 250 250 250 250 250 250 250 250 250 251 251 251 251 252 252 252 252 253 253 254 254 255
258 258 257 257 256 256 255 254 254 253 252 252 252 251 250 250 249 249 249 249 250 250 250 250 250 250 250 250 250 250 251 251 251 252 252 252 253 253 253 254 254 254
258 258 257 257 256 256 256 255 254 254 253 253 252 252 251 251 250 250 250 249 249 250 250 250 250 250 250 250 250 250 250 251 251 251 252 252 252 253 253 254 254 254
259 258 258 257 257 256 256 255 255 255 254 254 253 252 252 252 251 251 250 250 250 250 250 250 250 250 251 251 251 251 251 251 251 251 252 252 252 253 253 253 254 254
260 259 258 258 257 257 256 256 255 255 254 254 254 253 253 252 252 252 251 251 251 251 250 250 250 250 251 251 251 251 251 252 252 252 252 252 253 253 253 253 254 254
260 259 259 258 258 257 257 257 256 256 255 255 255 254 254 254 253 253 252 252 252 252 252 251 251 251 251 251 251 252 252 252 252 253 253 253 253 253 254 254 254 254
259 259 259 258 258 258 257 257 257 256 256 256 255 255 255 255 255 254 254 254 253 253 253 253 253 253 252 252 252 252 252 253 253 253 254 254 254 255 255 255 255 255
260 259 258 258 258 258 258 257 257 257 257 256 256 256 256 256 256 255 255 255 255 255 255 255 254 254 254 254 254 254 254 254 254 254 254 255 255 256 256 256 256 257
260 259 259 258 258 258 258 257 257 257 257 257 257 257 257 256 256 256 256 256 256 257 257 257 256 256 256 256 256 256 256 256 255 255 255 256 256 257 257 257 257 257
262 261 260 260 259 259 258 258 258 258 258 258 258 258 258 258 258 257 257 257 257 257 257 258 258 258 258 258 257 257 257 257 256 256 256 257 257 257 258 258 258 258
265 264 264 263 262 261 260 260 260 260 260 260 260 260 259 259 259 259 259 258 258 258 258 258 258 258 259 259 259 259 258 258 258 258 257 257 258 258 259 259 259 259
267 266 266 265 265 264 263 262 262 261 261 261 261 261 261 261 261 261 260 260 260 260 260 259 259 259 259 259 260 260 260 259 259 259 259 259 259 259 259 259 260 260
268 267 267 266 266 265 265 264 263 263 262 262 262 261 261 262 261 261 261 261 261 261 261 261 261 261 260 260 260 260 260 260 260 260 260 260 260 260 260 260 260 261
267 267 267 266 266 266 265 265 264 264 263 263 262 262 262 262 262 262 262 262 262 261 261 261 261 262 262 262 262 262 262 262 261 261 261 261 260 261 261 261 261 261